| time (UTC) | temp F | wind direction | speed knots | gust knots | rain 1hr in | rain 24hr in | rain mn in | humidity % | barometer mb |
| 20260906082014 | 72 | 66 | 0.0 | 2.6 | 0.00 | 0.00 | 0.00 | 90 | 1017.5 |
| 20260906081526 | 72 | 54 | 1.7 | 2.6 | 0.00 | 0.00 | 0.00 | 90 | 1017.7 |
| 20260906081016 | 72 | 42 | 0.9 | 1.7 | 0.00 | 0.00 | 0.00 | 90 | 1017.6 |
| 20260906080516 | 72 | 98 | 0.0 | 2.6 | 0.00 | 0.00 | 0.00 | 90 | 1017.6 |
| 20260906080031 | 72 | 73 | 0.9 | 2.6 | 0.00 | 0.00 | 0.00 | 90 | 1017.6 |
| 20260906075518 | 72 | 24 | 0.9 | 2.6 | 0.00 | 0.00 | 0.00 | 90 | 1017.7 |
| 20260906075018 | 72 | 34 | 0.9 | 2.6 | 0.00 | 0.00 | 0.00 | 90 | 1017.7 |
| 20260906074513 | 73 | 67 | 0.9 | 2.6 | 0.00 | 0.00 | 0.00 | 89 | 1017.6 |
| 20260906074010 | 73 | 58 | 0.9 | 2.6 | 0.00 | 0.00 | 0.00 | 89 | 1017.7 |
| 20260906073509 | 73 | 51 | 0.9 | 2.6 | 0.00 | 0.00 | 0.00 | 89 | 1017.6 |
| 20260906073023 | 73 | 51 | 0.0 | 3.5 | 0.00 | 0.00 | 0.00 | 89 | 1017.7 |
| 20260906072512 | 73 | 83 | 0.9 | 3.5 | 0.00 | 0.00 | 0.00 | 89 | 1017.8 |
| 20260906072013 | 73 | 60 | 0.9 | 4.3 | 0.00 | 0.00 | 0.00 | 89 | 1018.0 |
| 20260906071528 | 73 | 46 | 1.7 | 4.3 | 0.00 | 0.00 | 0.00 | 88 | 1017.8 |
| 20260906071016 | 73 | 132 | 0.9 | 2.6 | 0.00 | 0.00 | 0.00 | 88 | 1017.8 |
| 20260906070517 | 73 | 76 | 0.9 | 1.7 | 0.00 | 0.00 | 0.00 | 88 | 1017.9 |
| 20260906070031 | 73 | 68 | 0.0 | 2.6 | 0.00 | 0.00 | 0.00 | 88 | 1018.0 |
| 20260906065516 | 73 | 73 | 0.9 | 2.6 | 0.00 | 0.00 | 0.00 | 88 | 1018.0 |
| 20260906065020 | 73 | 46 | 0.9 | 2.6 | 0.00 | 0.00 | 0.00 | 88 | 1018.0 |
| 20260906064530 | 74 | 71 | 0.9 | 2.6 | 0.00 | 0.00 | 0.00 | 87 | 1017.9 |
| 20260906064023 | 74 | 69 | 0.9 | 1.7 | 0.00 | 0.00 | 0.00 | 87 | 1017.9 |
| 20260906063517 | 74 | 32 | 0.9 | 1.7 | 0.00 | 0.00 | 0.00 | 87 | 1017.8 |
| 20260906063024 | 74 | 80 | 0.0 | 2.6 | 0.00 | 0.00 | 0.00 | 87 | 1018.1 |
| 20260906062511 | 74 | 30 | 0.9 | 2.6 | 0.00 | 0.00 | 0.00 | 87 | 1018.1 |
| 20260906062013 | 74 | 57 | 0.9 | 4.3 | 0.00 | 0.00 | 0.00 | 87 | 1018.0 |
| 20260906061523 | 74 | 18 | 0.9 | 4.3 | 0.00 | 0.00 | 0.00 | 87 | 1018.1 |
| 20260906061013 | 74 | 57 | 1.7 | 4.3 | 0.00 | 0.00 | 0.00 | 86 | 1018.0 |
| 20260906060515 | 74 | 67 | 0.9 | 2.6 | 0.00 | 0.00 | 0.00 | 86 | 1017.9 |
| 20260906060028 | 74 | 74 | 0.9 | 2.6 | 0.00 | 0.00 | 0.00 | 86 | 1018.1 |
| 20260906055517 | 74 | 67 | 0.9 | 3.5 | 0.00 | 0.00 | 0.00 | 86 | 1018.1 |
| 20260906055016 | 74 | 61 | 0.9 | 3.5 | 0.00 | 0.00 | 0.00 | 86 | 1018.1 |
| 20260906054549 | 74 | 55 | 0.9 | 3.5 | 0.00 | 0.00 | 0.00 | 86 | 1017.9 |
| 20260906054017 | 74 | 53 | 0.9 | 2.6 | 0.00 | 0.00 | 0.00 | 86 | 1017.8 |
| 20260906053517 | 75 | 78 | 0.9 | 1.7 | 0.00 | 0.00 | 0.00 | 85 | 1017.7 |
| 20260906053032 | 75 | 34 | 0.0 | 1.7 | 0.00 | 0.00 | 0.00 | 86 | 1017.8 |
| 20260906052518 | 75 | 51 | 0.0 | 2.6 | 0.00 | 0.00 | 0.00 | 86 | 1018.0 |
| 20260906052017 | 75 | 51 | 0.9 | 3.5 | 0.00 | 0.00 | 0.00 | 85 | 1017.9 |
| 20260906051529 | 75 | 76 | 0.9 | 3.5 | 0.00 | 0.00 | 0.00 | 85 | 1017.8 |
| 20260906051003 | 75 | 27 | 0.9 | 1.7 | 0.00 | 0.00 | 0.00 | 85 | 1017.8 |
| 20260906050503 | 75 | 61 | 0.9 | 3.5 | 0.00 | 0.00 | 0.00 | 85 | 1017.7 |
| 20260906050004 | 75 | 56 | 0.9 | 3.5 | 0.00 | 0.00 | 0.00 | 85 | 1017.7 |
| 20260906045505 | 75 | 64 | 0.9 | 1.7 | 0.00 | 0.00 | 0.00 | 85 | 1017.6 |
| 20260906045003 | 75 | 65 | 0.0 | 2.6 | 0.00 | 0.00 | 0.00 | 85 | 1017.5 |
| 20260906044503 | 75 | 51 | 0.9 | 2.6 | 0.00 | 0.00 | 0.00 | 85 | 1017.4 |
| 20260906044003 | 75 | 46 | 0.9 | 2.6 | 0.00 | 0.00 | 0.00 | 85 | 1017.6 |
| 20260906043505 | 75 | 69 | 0.9 | 2.6 | 0.00 | 0.00 | 0.00 | 85 | 1017.4 |
| 20260906043005 | 75 | 87 | 0.9 | 2.6 | 0.00 | 0.00 | 0.00 | 85 | 1017.4 |
| 20260906042503 | 75 | 13 | 0.9 | 1.7 | 0.00 | 0.00 | 0.00 | 85 | 1017.4 |
| 20260906042004 | 75 | 65 | 0.9 | 1.7 | 0.00 | 0.00 | 0.00 | 84 | 1017.4 |
| 20260906041504 | 75 | 30 | 0.9 | 1.7 | 0.00 | 0.00 | 0.00 | 84 | 1017.4 |
| 20260906041005 | 75 | 64 | 0.9 | 1.7 | 0.00 | 0.00 | 0.00 | 84 | 1017.4 |
| 20260906040507 | 76 | 58 | 0.0 | 2.6 | 0.00 | 0.00 | 0.00 | 84 | 1017.5 |
| 20260906040004 | 76 | 37 | 0.9 | 2.6 | 0.00 | 0.00 | 0.00 | 84 | 1017.4 |
| 20260906035503 | 76 | 68 | 0.9 | 1.7 | 0.00 | 0.00 | 0.00 | 84 | 1017.4 |
| 20260906035005 | 76 | 59 | 0.9 | 2.6 | 0.00 | 0.00 | 0.00 | 84 | 1017.4 |
| 20260906034503 | 76 | 40 | 0.9 | 2.6 | 0.00 | 0.00 | 0.00 | 84 | 1017.3 |
| 20260906034004 | 76 | 55 | 0.9 | 1.7 | 0.00 | 0.00 | 0.00 | 84 | 1017.2 |
| 20260906033504 | 76 | 78 | 0.0 | 1.7 | 0.00 | 0.00 | 0.00 | 84 | 1017.1 |
| 20260906033004 | 76 | 22 | 0.0 | 1.7 | 0.00 | 0.00 | 0.00 | 84 | 1017.1 |
| 20260906032503 | 76 | 65 | 0.9 | 1.7 | 0.00 | 0.00 | 0.00 | 84 | 1017.0 |
| 20260906032004 | 76 | 57 | 0.9 | 2.6 | 0.00 | 0.00 | 0.00 | 84 | 1017.0 |
| 20260906031511 | 76 | 49 | 0.9 | 4.3 | 0.00 | 0.00 | 0.00 | 84 | 1016.9 |
| 20260906031007 | 76 | 55 | 1.7 | 4.3 | 0.00 | 0.00 | 0.00 | 84 | 1016.9 |
| 20260906030504 | 76 | 53 | 1.7 | 2.6 | 0.00 | 0.00 | 0.00 | 84 | 1016.8 |
| 20260906030010 | 76 | 9 | 0.9 | 1.7 | 0.00 | 0.00 | 0.00 | 84 | 1016.9 |
| 20260906025505 | 76 | 54 | 0.0 | 1.7 | 0.00 | 0.00 | 0.00 | 84 | 1016.8 |
| 20260906025010 | 76 | 69 | 0.9 | 1.7 | 0.00 | 0.00 | 0.00 | 84 | 1016.9 |
| 20260906024519 | 76 | 22 | 0.0 | 1.7 | 0.00 | 0.00 | 0.00 | 84 | 1016.8 |
| 20260906024005 | 76 | 61 | 0.0 | 1.7 | 0.00 | 0.00 | 0.00 | 84 | 1016.7 |
| 20260906023505 | 76 | 53 | 0.0 | 1.7 | 0.00 | 0.00 | 0.00 | 84 | 1016.6 |
| 20260906023007 | 77 | 99 | 0.9 | 2.6 | 0.00 | 0.00 | 0.00 | 84 | 1016.6 |
| 20260906022505 | 77 | 61 | 0.9 | 3.5 | 0.00 | 0.00 | 0.00 | 84 | 1016.6 |
| 20260906022006 | 77 | 34 | 0.9 | 3.5 | 0.00 | 0.00 | 0.00 | 84 | 1016.5 |
| 20260906021507 | 77 | 52 | 0.9 | 3.5 | 0.00 | 0.00 | 0.00 | 84 | 1016.4 |
| 20260906021005 | 77 | 67 | 0.9 | 3.5 | 0.00 | 0.00 | 0.00 | 83 | 1016.3 |
| 20260906020505 | 78 | 115 | 0.9 | 2.6 | 0.00 | 0.00 | 0.00 | 83 | 1016.1 |
| 20260906020006 | 78 | 34 | 0.9 | 2.6 | 0.00 | 0.00 | 0.00 | 83 | 1016.0 |
| 20260906015506 | 78 | 55 | 0.9 | 2.6 | 0.00 | 0.00 | 0.00 | 82 | 1015.9 |
| 20260906015004 | 78 | 40 | 0.9 | 2.6 | 0.00 | 0.00 | 0.00 | 82 | 1015.9 |
| 20260906014510 | 78 | 78 | 0.9 | 4.3 | 0.00 | 0.00 | 0.00 | 82 | 1015.8 |
| 20260906014005 | 78 | 52 | 1.7 | 4.3 | 0.00 | 0.00 | 0.00 | 81 | 1015.9 |
| 20260906013506 | 79 | 61 | 0.9 | 3.5 | 0.00 | 0.00 | 0.00 | 81 | 1015.8 |
| 20260906013008 | 79 | 42 | 0.9 | 3.5 | 0.00 | 0.00 | 0.00 | 81 | 1015.8 |
| 20260906012509 | 79 | 66 | 1.7 | 3.5 | 0.00 | 0.00 | 0.00 | 81 | 1015.8 |
| 20260906012006 | 79 | 81 | 1.7 | 3.5 | 0.00 | 0.00 | 0.00 | 80 | 1015.8 |
| 20260906011508 | 79 | 63 | 0.0 | 1.7 | 0.00 | 0.00 | 0.00 | 81 | 1015.7 |
| 20260906011005 | 79 | 63 | 0.0 | 0.9 | 0.00 | 0.00 | 0.00 | 81 | 1015.7 |
| 20260906010505 | 79 | 44 | 0.0 | 2.6 | 0.00 | 0.00 | 0.00 | 80 | 1015.8 |
| 20260906010024 | 79 | 20 | 0.9 | 2.6 | 0.00 | 0.00 | 0.00 | 80 | 1015.7 |
| 20260906005506 | 80 | 65 | 0.9 | 2.6 | 0.00 | 0.00 | 0.00 | 80 | 1015.6 |
| 20260906005006 | 80 | 60 | 0.9 | 1.7 | 0.00 | 0.00 | 0.00 | 80 | 1015.7 |
| 20260906004507 | 80 | 69 | 0.9 | 1.7 | 0.00 | 0.00 | 0.00 | 80 | 1015.6 |
| 20260906004006 | 80 | 61 | 0.9 | 2.6 | 0.00 | 0.00 | 0.00 | 80 | 1015.5 |
| 20260906003506 | 80 | 88 | 0.0 | 2.6 | 0.00 | 0.00 | 0.00 | 79 | 1015.6 |
| 20260906003006 | 80 | 79 | 0.9 | 3.5 | 0.00 | 0.00 | 0.00 | 79 | 1015.6 |
| 20260906002505 | 81 | 65 | 0.9 | 3.5 | 0.00 | 0.00 | 0.00 | 78 | 1015.6 |
| 20260906002008 | 81 | 59 | 0.9 | 2.6 | 0.00 | 0.00 | 0.00 | 78 | 1015.6 |
| 20260906001509 | 81 | 71 | 0.9 | 3.5 | 0.00 | 0.00 | 0.00 | 78 | 1015.6 |
| 20260906001007 | 81 | 23 | 1.7 | 5.2 | 0.00 | 0.00 | 0.00 | 78 | 1015.6 |
| 20260906000507 | 81 | 48 | 0.9 | 5.2 | 0.00 | 0.00 | 0.00 | 78 | 1015.5 |
| 20260906000016 | 82 | 78 | 1.7 | 5.2 | 0.00 | 0.00 | 0.00 | 78 | 1015.5 |
| 20260905235509 | 82 | 59 | 2.6 | 5.2 | 0.00 | 0.00 | 0.00 | 78 | 1015.5 |
| 20260905235003 | 83 | 342 | 1.7 | 5.2 | 0.00 | 0.00 | 0.00 | 78 | 1015.4 |
| 20260905234508 | 83 | 63 | 1.7 | 5.2 | 0.00 | 0.00 | 0.00 | 78 | 1015.3 |
| 20260905234009 | 84 | 65 | 2.6 | 5.2 | 0.00 | 0.00 | 0.00 | 78 | 1015.3 |
| 20260905233507 | 84 | 48 | 2.6 | 7.0 | 0.00 | 0.00 | 0.00 | 77 | 1015.3 |
| 20260905233011 | 84 | 41 | 2.6 | 7.0 | 0.00 | 0.00 | 0.00 | 76 | 1015.3 |
| 20260905232507 | 85 | 65 | 1.7 | 7.0 | 0.00 | 0.00 | 0.00 | 76 | 1015.3 |
| 20260905232008 | 85 | 342 | 0.9 | 5.2 | 0.00 | 0.00 | 0.00 | 76 | 1015.2 |
| 20260905231510 | 86 | 59 | 2.6 | 4.3 | 0.00 | 0.00 | 0.00 | 75 | 1015.2 |
| 20260905231005 | 86 | 71 | 0.9 | 5.2 | 0.00 | 0.00 | 0.00 | 75 | 1015.2 |
| 20260905230507 | 87 | 86 | 2.6 | 5.2 | 0.00 | 0.00 | 0.00 | 75 | 1015.1 |
| 20260905230022 | 87 | 69 | 2.6 | 8.7 | 0.00 | 0.00 | 0.00 | 74 | 1015.0 |
| 20260905225508 | 88 | 73 | 2.6 | 8.7 | 0.00 | 0.00 | 0.00 | 74 | 1014.9 |
| 20260905225009 | 88 | 43 | 2.6 | 6.1 | 0.00 | 0.00 | 0.00 | 73 | 1014.8 |
| 20260905224518 | 89 | 62 | 1.7 | 7.8 | 0.00 | 0.00 | 0.00 | 72 | 1014.7 |
| 20260905224007 | 89 | 28 | 2.6 | 7.8 | 0.00 | 0.00 | 0.00 | 71 | 1014.7 |
| 20260905223510 | 89 | 59 | 1.7 | 6.1 | 0.00 | 0.00 | 0.00 | 69 | 1014.5 |
| 20260905223016 | 90 | 84 | 1.7 | 6.1 | 0.00 | 0.00 | 0.00 | 67 | 1014.6 |
| 20260905222511 | 90 | 138 | 1.7 | 4.3 | 0.00 | 0.00 | 0.00 | 68 | 1014.5 |
| 20260905222009 | 90 | 78 | 2.6 | 5.2 | 0.00 | 0.00 | 0.00 | 67 | 1014.5 |
| 20260905221511 | 90 | 61 | 1.7 | 5.2 | 0.00 | 0.00 | 0.00 | 67 | 1014.5 |
| 20260905221006 | 90 | 50 | 0.9 | 7.0 | 0.00 | 0.00 | 0.00 | 67 | 1014.5 |
| 20260905220505 | 90 | 65 | 2.6 | 7.0 | 0.00 | 0.00 | 0.00 | 65 | 1014.5 |
| 20260905220007 | 90 | 40 | 1.7 | 5.2 | 0.00 | 0.00 | 0.00 | 67 | 1014.5 |
| 20260905215507 | 90 | 46 | 1.7 | 6.1 | 0.00 | 0.00 | 0.00 | 67 | 1014.6 |
| 20260905215008 | 90 | 65 | 2.6 | 6.1 | 0.00 | 0.00 | 0.00 | 66 | 1014.6 |
| 20260905214512 | 91 | 9 | 2.6 | 4.3 | 0.00 | 0.00 | 0.00 | 65 | 1014.7 |
| 20260905214010 | 91 | 56 | 1.7 | 3.5 | 0.00 | 0.00 | 0.00 | 65 | 1014.7 |
| 20260905213510 | 91 | 34 | 0.9 | 3.5 | 0.00 | 0.00 | 0.00 | 65 | 1014.7 |
| 20260905213016 | 91 | 78 | 1.7 | 3.5 | 0.00 | 0.00 | 0.00 | 64 | 1014.7 |
| 20260905212510 | 91 | 28 | 1.7 | 3.5 | 0.00 | 0.00 | 0.00 | 66 | 1014.6 |
| 20260905212009 | 91 | 17 | 0.9 | 4.3 | 0.00 | 0.00 | 0.00 | 66 | 1014.7 |
| 20260905211539 | 90 | 83 | 2.6 | 4.3 | 0.00 | 0.00 | 0.00 | 64 | 1014.7 |
| 20260905211013 | 90 | 66 | 1.7 | 4.3 | 0.00 | 0.00 | 0.00 | 66 | 1014.7 |
| 20260905210512 | 90 | 69 | 0.9 | 4.3 | 0.00 | 0.00 | 0.00 | 69 | 1014.7 |
| 20260905210017 | 90 | 20 | 1.7 | 4.3 | 0.00 | 0.00 | 0.00 | 68 | 1014.8 |
| 20260905205505 | 90 | 65 | 2.6 | 3.5 | 0.00 | 0.00 | 0.00 | 67 | 1014.9 |
| 20260905205008 | 90 | 65 | 0.9 | 3.5 | 0.00 | 0.00 | 0.00 | 70 | 1014.9 |
| 20260905204511 | 90 | 59 | 0.9 | 4.3 | 0.00 | 0.00 | 0.00 | 69 | 1014.9 |
| 20260905204007 | 90 | 30 | 1.7 | 4.3 | 0.00 | 0.00 | 0.00 | 69 | 1015.0 |
| 20260905203509 | 89 | 151 | 0.9 | 2.6 | 0.00 | 0.00 | 0.00 | 68 | 1014.9 |
| 20260905203016 | 89 | 76 | 0.9 | 2.6 | 0.00 | 0.00 | 0.00 | 69 | 1014.9 |
| 20260905202510 | 89 | 19 | 0.9 | 3.5 | 0.00 | 0.00 | 0.00 | 70 | 1015.0 |
| 20260905202010 | 89 | 78 | 0.9 | 4.3 | 0.00 | 0.00 | 0.00 | 70 | 1015.1 |
| 20260905201525 | 89 | 338 | 1.7 | 5.2 | 0.00 | 0.00 | 0.00 | 70 | 1015.0 |
| 20260905201011 | 90 | 53 | 2.6 | 5.2 | 0.00 | 0.00 | 0.00 | 69 | 1015.0 |
| 20260905200513 | 90 | 28 | 1.7 | 3.5 | 0.00 | 0.00 | 0.00 | 70 | 1015.0 |
| 20260905200020 | 90 | 60 | 0.9 | 2.6 | 0.00 | 0.00 | 0.00 | 69 | 1015.2 |
| 20260905195512 | 90 | 64 | 0.9 | 2.6 | 0.00 | 0.00 | 0.00 | 69 | 1015.3 |
| 20260905195005 | 90 | 352 | 0.0 | 2.6 | 0.00 | 0.00 | 0.00 | 71 | 1015.4 |
| 20260905194509 | 89 | 31 | 1.7 | 2.6 | 0.00 | 0.00 | 0.00 | 71 | 1015.5 |
| 20260905194007 | 89 | 81 | 0.0 | 2.6 | 0.00 | 0.00 | 0.00 | 71 | 1015.5 |
| 20260905193506 | 89 | 65 | 0.9 | 2.6 | 0.00 | 0.00 | 0.00 | 70 | 1015.5 |
| 20260905193014 | 89 | 351 | 0.0 | 1.7 | 0.00 | 0.00 | 0.00 | 71 | 1015.6 |
| 20260905192512 | 89 | 57 | 0.9 | 1.7 | 0.00 | 0.00 | 0.00 | 72 | 1015.6 |
| 20260905192009 | 88 | 5 | 0.9 | 2.6 | 0.00 | 0.00 | 0.00 | 72 | 1015.7 |
| 20260905191520 | 88 | 54 | 0.0 | 5.2 | 0.00 | 0.00 | 0.00 | 71 | 1015.5 |
| 20260905191012 | 88 | 53 | 1.7 | 5.2 | 0.00 | 0.00 | 0.00 | 70 | 1015.5 |
| 20260905190511 | 88 | 76 | 0.9 | 2.6 | 0.00 | 0.00 | 0.00 | 71 | 1015.6 |
| 20260905190004 | 88 | 25 | 0.9 | 2.6 | 0.00 | 0.00 | 0.00 | 72 | 1015.7 |
| 20260905185505 | 88 | 11 | 0.0 | 1.7 | 0.00 | 0.00 | 0.00 | 72 | 1015.8 |
| 20260905185006 | 88 | 20 | 0.9 | 2.6 | 0.00 | 0.00 | 0.00 | 72 | 1015.9 |
| 20260905184509 | 88 | 13 | 0.9 | 2.6 | 0.00 | 0.00 | 0.00 | 72 | 1015.9 |
| 20260905184004 | 88 | 34 | 0.9 | 2.6 | 0.00 | 0.00 | 0.00 | 71 | 1015.9 |
| 20260905183507 | 88 | 55 | 0.9 | 3.5 | 0.00 | 0.00 | 0.00 | 71 | 1016.1 |
| 20260905183020 | 88 | 120 | 1.7 | 3.5 | 0.00 | 0.00 | 0.00 | 72 | 1016.0 |
| 20260905182508 | 88 | 38 | 0.9 | 1.7 | 0.00 | 0.00 | 0.00 | 72 | 1016.0 |
| 20260905182012 | 88 | 22 | 0.9 | 2.6 | 0.00 | 0.00 | 0.00 | 72 | 1016.1 |
| 20260905181517 | 88 | 67 | 1.7 | 2.6 | 0.00 | 0.00 | 0.00 | 72 | 1015.9 |
| 20260905181014 | 88 | 78 | 0.9 | 2.6 | 0.00 | 0.00 | 0.00 | 72 | 1015.9 |
| 20260905180517 | 88 | 9 | 0.9 | 3.5 | 0.00 | 0.00 | 0.00 | 73 | 1015.9 |
| 20260905180024 | 87 | 57 | 1.7 | 3.5 | 0.00 | 0.00 | 0.00 | 73 | 1016.0 |
| 20260905175518 | 87 | 45 | 0.9 | 2.6 | 0.00 | 0.00 | 0.00 | 73 | 1016.1 |
| 20260905175013 | 87 | 55 | 0.9 | 3.5 | 0.00 | 0.00 | 0.00 | 73 | 1015.9 |
| 20260905174505 | 87 | 50 | 1.7 | 3.5 | 0.00 | 0.00 | 0.00 | 73 | 1015.9 |
| 20260905174007 | 87 | 28 | 0.9 | 4.3 | 0.00 | 0.00 | 0.00 | 73 | 1015.9 |
| 20260905173507 | 87 | 72 | 1.7 | 4.3 | 0.00 | 0.00 | 0.00 | 73 | 1015.8 |
| 20260905173027 | 87 | 56 | 1.7 | 3.5 | 0.00 | 0.00 | 0.00 | 74 | 1015.8 |
| 20260905172506 | 87 | 54 | 0.9 | 3.5 | 0.00 | 0.00 | 0.00 | 75 | 1016.0 |
| 20260905172011 | 87 | 78 | 0.9 | 6.1 | 0.00 | 0.00 | 0.00 | 74 | 1016.0 |
| 20260905171514 | 87 | 67 | 2.6 | 6.1 | 0.00 | 0.00 | 0.00 | 74 | 1016.1 |
| 20260905171011 | 87 | 67 | 1.7 | 3.5 | 0.00 | 0.00 | 0.00 | 75 | 1016.1 |
| 20260905170515 | 87 | 80 | 0.9 | 2.6 | 0.00 | 0.00 | 0.00 | 75 | 1016.2 |
| 20260905170021 | 87 | 52 | 0.0 | 3.5 | 0.00 | 0.00 | 0.00 | 75 | 1016.2 |
| 20260905165515 | 87 | 26 | 0.9 | 3.5 | 0.00 | 0.00 | 0.00 | 76 | 1016.2 |
| 20260905165017 | 87 | 17 | 1.7 | 3.5 | 0.00 | 0.00 | 0.00 | 76 | 1016.2 |
| 20260905164527 | 87 | 66 | 0.9 | 3.5 | 0.00 | 0.00 | 0.00 | 76 | 1016.4 |
| 20260905164015 | 87 | 56 | 1.7 | 3.5 | 0.00 | 0.00 | 0.00 | 75 | 1016.2 |
| 20260905163506 | 87 | 59 | 1.7 | 3.5 | 0.00 | 0.00 | 0.00 | 76 | 1016.3 |
| 20260905163005 | 87 | 29 | 1.7 | 2.6 | 0.00 | 0.00 | 0.00 | 76 | 1016.4 |
| 20260905162508 | 87 | 88 | 0.9 | 2.6 | 0.00 | 0.00 | 0.00 | 77 | 1016.4 |
| 20260905162008 | 87 | 44 | 0.9 | 4.3 | 0.00 | 0.00 | 0.00 | 78 | 1016.3 |
| 20260905161515 | 86 | 55 | 0.9 | 4.3 | 0.00 | 0.00 | 0.00 | 78 | 1016.3 |
| 20260905161013 | 86 | 76 | 1.7 | 6.1 | 0.00 | 0.00 | 0.00 | 77 | 1016.3 |
| 20260905160511 | 86 | 32 | 1.7 | 6.1 | 0.00 | 0.00 | 0.00 | 76 | 1016.3 |
| 20260905160021 | 86 | 44 | 0.9 | 2.6 | 0.00 | 0.00 | 0.00 | 78 | 1016.2 |
| 20260905155513 | 86 | 36 | 0.9 | 3.5 | 0.00 | 0.00 | 0.00 | 77 | 1016.2 |
| 20260905155016 | 86 | 16 | 1.7 | 3.5 | 0.00 | 0.00 | 0.00 | 76 | 1016.1 |
| 20260905154526 | 86 | 90 | 1.7 | 2.6 | 0.00 | 0.00 | 0.00 | 77 | 1016.0 |
| 20260905154020 | 86 | 59 | 0.9 | 1.7 | 0.00 | 0.00 | 0.00 | 77 | 1016.1 |
| 20260905153519 | 85 | 37 | 0.9 | 2.6 | 0.00 | 0.00 | 0.00 | 76 | 1015.9 |
| 20260905153028 | 85 | 20 | 0.9 | 3.5 | 0.00 | 0.00 | 0.00 | 76 | 1015.9 |
| 20260905152514 | 85 | 32 | 1.7 | 3.5 | 0.00 | 0.00 | 0.00 | 76 | 1015.8 |
| 20260905152007 | 85 | 26 | 0.0 | 2.6 | 0.00 | 0.00 | 0.00 | 77 | 1015.9 |
| 20260905151514 | 85 | 34 | 0.9 | 2.6 | 0.00 | 0.00 | 0.00 | 76 | 1015.9 |
| 20260905151012 | 85 | 58 | 0.9 | 2.6 | 0.00 | 0.00 | 0.00 | 78 | 1016.0 |
| 20260905150510 | 85 | 32 | 0.9 | 2.6 | 0.00 | 0.00 | 0.00 | 79 | 1015.9 |
| 20260905150020 | 84 | 54 | 0.9 | 2.6 | 0.00 | 0.00 | 0.00 | 80 | 1015.8 |
| 20260905145511 | 84 | 76 | 0.9 | 2.6 | 0.00 | 0.00 | 0.00 | 80 | 1015.7 |
| 20260905145014 | 84 | 11 | 0.0 | 1.7 | 0.00 | 0.00 | 0.00 | 80 | 1015.6 |
| 20260905144520 | 83 | 32 | 0.9 | 1.7 | 0.00 | 0.00 | 0.00 | 80 | 1015.6 |
| 20260905144015 | 83 | 40 | 0.9 | 1.7 | 0.00 | 0.00 | 0.00 | 81 | 1015.6 |
| 20260905143515 | 83 | 26 | 0.9 | 1.7 | 0.00 | 0.00 | 0.00 | 81 | 1015.6 |
| 20260905143033 | 82 | 75 | 0.9 | 1.7 | 0.00 | 0.00 | 0.00 | 81 | 1015.5 |
| 20260905142518 | 82 | 54 | 0.9 | 2.6 | 0.00 | 0.00 | 0.00 | 82 | 1015.4 |
| 20260905142021 | 82 | 64 | 0.9 | 2.6 | 0.00 | 0.00 | 0.00 | 83 | 1015.4 |
| 20260905141530 | 82 | 73 | 0.9 | 1.7 | 0.00 | 0.00 | 0.00 | 83 | 1015.3 |
| 20260905141016 | 82 | 32 | 0.0 | 2.6 | 0.00 | 0.00 | 0.00 | 84 | 1015.3 |
| 20260905140511 | 81 | 5 | 0.9 | 2.6 | 0.00 | 0.00 | 0.00 | 84 | 1015.2 |
| 20260905140014 | 81 | 273 | 0.9 | 2.6 | 0.00 | 0.00 | 0.00 | 84 | 1015.2 |
| 20260905135510 | 81 | 352 | 0.9 | 1.7 | 0.00 | 0.00 | 0.00 | 86 | 1015.2 |
| 20260905135011 | 80 | 309 | 0.0 | 1.7 | 0.00 | 0.00 | 0.00 | 87 | 1015.1 |
| 20260905134523 | 80 | 352 | 0.0 | 1.7 | 0.00 | 0.00 | 0.00 | 87 | 1015.1 |
| 20260905134016 | 79 | 352 | 0.0 | 1.7 | 0.00 | 0.00 | 0.00 | 88 | 1015.0 |
| 20260905133515 | 79 | 279 | 0.0 | 1.7 | 0.00 | 0.00 | 0.00 | 88 | 1015.1 |
| 20260905133027 | 79 | 279 | 0.0 | 1.7 | 0.00 | 0.00 | 0.00 | 88 | 1015.1 |
| 20260905132514 | 78 | 279 | 0.0 | 1.7 | 0.00 | 0.00 | 0.00 | 89 | 1015.0 |
| 20260905132018 | 78 | 340 | 0.0 | 1.7 | 0.00 | 0.00 | 0.00 | 89 | 1014.9 |
| 20260905131531 | 78 | 340 | 0.0 | 1.7 | 0.00 | 0.00 | 0.00 | 90 | 1015.0 |
| 20260905131003 | 77 | 340 | 0.0 | 1.7 | 0.00 | 0.00 | 0.00 | 91 | 1014.9 |
| 20260905130508 | 77 | 340 | 0.0 | 1.7 | 0.00 | 0.00 | 0.00 | 91 | 1014.8 |
| 20260905130015 | 77 | 321 | 0.0 | 1.7 | 0.00 | 0.00 | 0.00 | 92 | 1014.7 |
| 20260905125510 | 76 | 234 | 0.0 | 1.7 | 0.00 | 0.00 | 0.00 | 93 | 1014.7 |
| 20260905125011 | 76 | 277 | 0.0 | 1.7 | 0.00 | 0.00 | 0.00 | 93 | 1014.6 |
| 20260905124532 | 76 | 288 | 0.0 | 1.7 | 0.00 | 0.00 | 0.00 | 94 | 1014.6 |
| 20260905124006 | 76 | 236 | 0.0 | 1.7 | 0.00 | 0.00 | 0.00 | 94 | 1014.5 |
| 20260905123504 | 75 | 236 | 0.0 | 1.7 | 0.00 | 0.00 | 0.00 | 94 | 1014.6 |
| 20260905123006 | 75 | 236 | 0.0 | 1.7 | 0.00 | 0.00 | 0.00 | 94 | 1014.5 |
| 20260905122504 | 75 | 236 | 0.0 | 0.0 | 0.00 | 0.00 | 0.00 | 94 | 1014.6 |
| 20260905122005 | 75 | 236 | 0.0 | 0.0 | 0.00 | 0.00 | 0.00 | 94 | 1014.5 |
| 20260905121506 | 75 | 236 | 0.0 | 0.0 | 0.00 | 0.00 | 0.00 | 93 | 1014.5 |
| 20260905121003 | 75 | 236 | 0.0 | 1.7 | 0.00 | 0.00 | 0.00 | 93 | 1014.3 |
| 20260905120511 | 75 | 236 | 0.0 | 1.7 | 0.00 | 0.00 | 0.00 | 93 | 1014.3 |
| 20260905120010 | 75 | 236 | 0.0 | 1.7 | 0.00 | 0.00 | 0.00 | 93 | 1014.3 |
| 20260905115509 | 75 | 236 | 0.0 | 1.7 | 0.00 | 0.00 | 0.00 | 93 | 1014.5 |
| 20260905115012 | 75 | 236 | 0.9 | 1.7 | 0.00 | 0.00 | 0.00 | 93 | 1014.5 |
| 20260905114518 | 75 | 236 | 0.0 | 1.7 | 0.00 | 0.00 | 0.00 | 93 | 1014.5 |
| 20260905114015 | 75 | 236 | 0.0 | 1.7 | 0.00 | 0.00 | 0.00 | 93 | 1014.4 |
| 20260905113512 | 75 | 236 | 0.0 | 1.7 | 0.00 | 0.00 | 0.00 | 93 | 1014.2 |
| 20260905113023 | 75 | 236 | 0.0 | 0.0 | 0.00 | 0.00 | 0.00 | 93 | 1014.2 |
| 20260905112504 | 75 | 236 | 0.0 | 1.7 | 0.00 | 0.00 | 0.00 | 93 | 1014.2 |
| 20260905112003 | 75 | 236 | 0.0 | 1.7 | 0.00 | 0.00 | 0.00 | 93 | 1014.0 |
| 20260905111508 | 75 | 236 | 0.0 | 1.7 | 0.00 | 0.00 | 0.00 | 92 | 1014.0 |
| 20260905111004 | 76 | 236 | 0.0 | 1.7 | 0.00 | 0.00 | 0.00 | 92 | 1014.0 |
| 20260905110505 | 76 | 236 | 0.0 | 0.0 | 0.00 | 0.00 | 0.00 | 92 | 1014.1 |
| 20260905110010 | 76 | 236 | 0.0 | 1.7 | 0.00 | 0.00 | 0.00 | 92 | 1014.2 |
| 20260905105518 | 76 | 236 | 0.0 | 1.7 | 0.00 | 0.00 | 0.00 | 92 | 1014.0 |
| 20260905105011 | 76 | 236 | 0.0 | 1.7 | 0.00 | 0.00 | 0.00 | 92 | 1014.0 |
| 20260905104514 | 76 | 236 | 0.0 | 1.7 | 0.00 | 0.00 | 0.00 | 92 | 1014.0 |
| 20260905104010 | 76 | 236 | 0.0 | 0.9 | 0.00 | 0.00 | 0.00 | 91 | 1013.9 |
| 20260905103512 | 76 | 236 | 0.0 | 0.0 | 0.00 | 0.00 | 0.00 | 91 | 1013.9 |
| 20260905103020 | 76 | 236 | 0.0 | 0.0 | 0.00 | 0.00 | 0.00 | 91 | 1013.8 |
| 20260905102514 | 76 | 236 | 0.0 | 0.0 | 0.00 | 0.00 | 0.00 | 91 | 1013.9 |
| 20260905102015 | 76 | 236 | 0.0 | 0.0 | 0.00 | 0.00 | 0.00 | 91 | 1013.9 |
| 20260905101528 | 76 | 236 | 0.0 | 0.0 | 0.00 | 0.00 | 0.00 | 91 | 1014.0 |
| 20260905101003 | 76 | 236 | 0.0 | 0.0 | 0.00 | 0.00 | 0.00 | 91 | 1014.0 |
| 20260905100504 | 77 | 236 | 0.0 | 0.0 | 0.00 | 0.00 | 0.00 | 91 | 1014.0 |
| 20260905100010 | 77 | 236 | 0.0 | 1.7 | 0.00 | 0.00 | 0.00 | 91 | 1013.9 |
| 20260905095506 | 77 | 236 | 0.0 | 1.7 | 0.00 | 0.00 | 0.00 | 91 | 1014.0 |
| 20260905095009 | 77 | 236 | 0.0 | 1.7 | 0.00 | 0.00 | 0.00 | 90 | 1014.1 |
| 20260905094513 | 77 | 253 | 0.0 | 1.7 | 0.00 | 0.00 | 0.00 | 90 | 1014.1 |
| 20260905094009 | 77 | 110 | 0.0 | 0.0 | 0.00 | 0.00 | 0.00 | 90 | 1014.1 |
| 20260905093508 | 77 | 110 | 0.0 | 0.9 | 0.00 | 0.00 | 0.00 | 90 | 1014.0 |
| 20260905093020 | 77 | 110 | 0.0 | 0.9 | 0.00 | 0.00 | 0.00 | 90 | 1014.0 |
| 20260905092514 | 77 | 110 | 0.0 | 1.7 | 0.00 | 0.00 | 0.00 | 89 | 1014.2 |
| 20260905092013 | 77 | 110 | 0.0 | 1.7 | 0.00 | 0.00 | 0.00 | 89 | 1014.2 |
| 20260905091523 | 78 | 110 | 0.0 | 1.7 | 0.00 | 0.00 | 0.00 | 89 | 1014.2 |
| 20260905091016 | 78 | 110 | 0.0 | 1.7 | 0.00 | 0.00 | 0.00 | 89 | 1014.3 |
| 20260905090513 | 78 | 110 | 0.0 | 1.7 | 0.00 | 0.00 | 0.00 | 89 | 1014.3 |
| 20260905090009 | 78 | 110 | 0.0 | 1.7 | 0.00 | 0.00 | 0.00 | 89 | 1014.3 |
| 20260905085504 | 78 | 110 | 0.0 | 0.0 | 0.00 | 0.00 | 0.00 | 89 | 1014.3 |
| 20260905085005 | 78 | 110 | 0.0 | 1.7 | 0.00 | 0.00 | 0.00 | 89 | 1014.2 |
| 20260905084508 | 78 | 110 | 0.0 | 1.7 | 0.00 | 0.00 | 0.00 | 89 | 1014.3 |
| 20260905084008 | 78 | 110 | 0.0 | 0.9 | 0.00 | 0.00 | 0.00 | 89 | 1014.1 |
| 20260905083510 | 78 | 110 | 0.0 | 0.9 | 0.00 | 0.00 | 0.00 | 89 | 1014.2 |
| 20260905083021 | 78 | 110 | 0.0 | 0.0 | 0.00 | 0.00 | 0.00 | 89 | 1014.3 |
| 20260905082510 | 78 | 110 | 0.0 | 0.0 | 0.00 | 0.00 | 0.00 | 89 | 1014.3 |